CW8014 Weather Reports


Display with metric or nautical units.
time (UTC)temp
F
wind
direction
speed
MPH
gust
MPH
rain 1hr
in
rain 24hr
in
rain mn
in
humidity
%
barometer
mb
20260505095406 51 325 5.0 9.0 0.00 0.00 0.00 84 1011.6
20260505094406 51 42 6.0 12.0 0.00 0.00 0.00 84 1011.6
20260505093409 51 35 4.0 9.0 0.00 0.00 0.00 85 1011.6
20260505091407 50 62 3.0 8.0 0.00 0.00 0.00 85 1011.8
20260505090406 50 14 4.0 9.0 0.00 0.00 0.00 86 1011.9
20260505084407 50 76 3.0 8.0 0.00 0.00 0.00 85 1012.1
20260505083409 50 24 3.0 5.0 0.00 0.00 0.00 86 1012.1
20260505082406 50 30 3.0 9.0 0.00 0.00 0.00 85 1012.1
20260505074407 48 355 5.0 9.0 0.00 0.00 0.00 87 1012.2
20260505072407 48 21 5.0 10.0 0.00 0.00 0.00 88 1012.1
20260505071407 48 360 5.0 12.0 0.00 0.00 0.00 88 1012.1
20260505070407 47 5 6.0 12.0 0.00 0.00 0.00 88 1012.1
20260505065407 47 15 4.0 8.0 0.00 0.00 0.00 88 1012.2
20260505064407 47 355 4.0 7.0 0.00 0.00 0.00 89 1012.2
20260505063407 47 24 4.0 9.0 0.00 0.00 0.00 89 1012.3
20260505062407 47 344 3.0 10.0 0.00 0.00 0.00 89 1012.2
20260505060407 47 53 4.0 9.0 0.00 0.00 0.00 89 1012.3
20260505055407 47 14 3.0 6.0 0.00 0.00 0.00 89 1012.2
20260505054407 47 33 3.0 8.0 0.00 0.00 0.00 89 1012.2
20260505052407 47 55 5.0 11.0 0.00 0.00 0.00 89 1012.2
20260505051407 47 14 4.0 10.0 0.00 0.00 0.00 89 1012.2
20260505041407 47 42 5.0 10.0 0.00 0.00 0.00 89 1012.1
20260505040407 47 32 3.0 12.0 0.00 0.00 0.00 90 1012.1
20260505035407 47 12 3.0 7.0 0.00 0.00 0.00 89 1012.0
20260505034407 47 66 2.0 4.0 0.00 0.00 0.00 89 1012.1
20260505030407 47 59 3.0 8.0 0.00 0.00 0.00 89 1012.3
20260505025407 47 56 3.0 8.0 0.00 0.00 0.00 89 1012.3
20260505024412 47 36 5.0 10.0 0.00 0.00 0.00 89 1012.4
20260505022412 47 351 4.0 11.0 0.00 0.00 0.00 89 1012.4
20260505021415 47 15 5.0 10.0 0.00 0.00 0.00 90 1012.5
20260505020412 47 36 3.0 7.0 0.00 0.00 0.00 90 1012.6
20260505014412 47 342 4.0 9.0 0.00 0.00 0.00 90 1012.7
20260505013415 47 360 5.0 11.0 0.00 0.00 0.00 90 1012.7
20260505012412 47 9 3.0 9.0 0.00 0.00 0.00 90 1012.8
20260505011412 47 12 4.0 8.0 0.00 0.00 0.00 90 1012.8
20260505010412 47 345 2.0 5.0 0.00 0.00 0.00 90 1012.8
20260505005415 47 333 2.0 7.0 0.00 0.00 0.00 90 1012.8
20260505004412 47 45 4.0 8.0 0.00 0.00 0.00 90 1012.9
20260505003412 47 327 3.0 9.0 0.00 0.00 0.00 91 1012.9
20260505002415 47 346 2.0 9.0 0.00 0.00 0.00 91 1013.0
20260505001412 47 11 3.0 8.0 0.00 0.00 0.00 91 1013.0
20260505000413 47 5 3.0 6.0 0.00 0.00 0.00 91 1013.1
20260504235412 47 5 3.0 6.0 0.00 0.00 0.00 91 1013.1
20260504233412 47 346 5.0 9.0 0.00 0.00 0.00 91 1013.1
20260504232412 47 355 4.0 10.0 0.00 0.00 0.00 90 1013.1
20260504231412 47 322 6.0 11.0 0.00 0.00 0.00 90 1013.2
20260504230412 48 17 5.0 10.0 0.00 0.00 0.00 90 1013.2
20260504223410 58 350 6.0 9.0 0.00 0.02 0.00 87 1012.6
20260504221410 58 350 6.0 9.0 0.00 0.02 0.00 87 1012.6
20260504220410 58 350 6.0 9.0 0.00 0.02 0.00 87 1012.6
20260504215410 58 350 6.0 9.0 0.00 0.02 0.00 87 1012.6
20260504214410 58 350 6.0 9.0 0.00 0.02 0.00 87 1012.6
20260504212410 58 350 6.0 9.0 0.00 0.02 0.00 87 1012.6
20260504211410 58 350 6.0 9.0 0.00 0.02 0.00 87 1012.6
20260504210413 58 350 6.0 9.0 0.00 0.02 0.00 87 1012.6
20260504205410 58 350 6.0 9.0 0.00 0.02 0.00 87 1012.6
20260504204410 58 350 6.0 9.0 0.00 0.02 0.00 87 1012.6
20260504203410 58 350 6.0 9.0 0.00 0.02 0.00 87 1012.6
20260504201410 58 350 6.0 9.0 0.00 0.02 0.00 87 1012.6
20260504200410 58 350 6.0 9.0 0.00 0.02 0.00 87 1012.6
20260504195413 58 350 6.0 9.0 0.00 0.02 0.00 87 1012.6
20260504194410 58 350 6.0 9.0 0.00 0.02 0.00 87 1012.6
20260504193410 58 350 6.0 9.0 0.00 0.02 0.00 87 1012.6
20260504192410 58 350 6.0 9.0 0.00 0.02 0.00 87 1012.6
20260504191410 58 350 6.0 9.0 0.00 0.02 0.00 87 1012.6
20260504185410 58 350 6.0 9.0 0.00 0.02 0.00 87 1012.6
20260504184413 58 350 6.0 9.0 0.00 0.02 0.00 87 1012.6
20260504183410 58 350 6.0 9.0 0.00 0.02 0.00 87 1012.6
20260504181409 58 350 6.0 9.0 0.00 0.02 0.00 87 1012.6
20260504180409 58 350 6.0 9.0 0.00 0.02 0.00 87 1012.6
20260504174410 58 350 6.0 9.0 0.00 0.02 0.00 87 1012.6
20260504173409 58 350 6.0 9.0 0.00 0.02 0.00 87 1012.6
20260504172410 58 350 6.0 9.0 0.00 0.02 0.00 87 1012.6
20260504170409 59 5 6.0 11.0 0.00 0.02 0.00 86 1012.6
20260504160409 61 44 5.0 10.0 0.00 0.02 0.00 85 1012.7
20260504140403 64 9 6.0 11.0 0.00 0.67 0.00 83 1012.7
20260504110403 62 92 2.0 6.0 0.00 0.80 0.00 84 1013.1